Location: Batesville
(34.7480°N, 83.6110°W)
Time: 23:33:41
(UTC-05:00)

Tiangong 2 - Visible Passes

Search period start: 21 January 2018 00:00
Search period end: 31 January 2018 00:00
Orbit: 384 x 390 km, 42.8° (Epoch: 21 January)

Date Brightness Start Highest point End Pass type
(mag) Time Alt. Az. Time Alt. Az. Time Alt. Az.
21 Jan 4.1 05:29:09 14° NE 05:29:09 14° NE 05:29:41 10° NE visible
21 Jan 2.9 07:01:26 10° NW 07:03:49 20° N 07:06:16 10° NE visible
22 Jan 2.9 06:05:33 22° N 06:05:33 22° N 06:07:33 10° NE visible
23 Jan 3.0 06:41:53 14° NW 06:43:25 19° N 06:45:45 10° NE visible
24 Jan 3.7 05:45:53 15° NNE 05:45:53 15° NNE 05:46:53 10° NE visible
25 Jan 3.0 06:22:08 18° NNW 06:22:58 20° N 06:25:23 10° NE visible
26 Jan 4.3 05:26:06 11° NE 05:26:06 11° NE 05:26:19 10° NE visible
26 Jan 2.4 06:58:29 10° NW 07:01:23 31° NNE 07:04:17 10° E visible
27 Jan 2.8 06:02:20 23° N 06:02:28 23° NNE 06:05:06 10° ENE visible
28 Jan 1.7 06:38:35 18° NW 06:40:44 50° NNE 06:43:51 10° E visible
29 Jan 2.9 05:42:37 28° NE 05:42:37 28° NE 05:44:47 10° E visible
30 Jan 1.0 06:18:58 40° WNW 06:20:00 86° SSW 06:23:10 10° ESE visible
